Location: Jetmore Motorplex
(37.9889°N, 99.8876°W)
Time: 02:20:29
(UTC+00:00)

STARLINK-25 - Pass Details

Date: 17 February 2020
Orbit: 529 x 530 km, 53.0° (Epoch: 03 April)

Event Time Altitude Azimuth Distance (km) Brightness Sun altitude
Rises 01:28:04 0° 213° (SSW) 2,650 7.7 -14.2°
Reaches altitude 10° 01:30:19 10° 208° (SSW) 1,765 6.6 -14.7°
Maximum altitude 01:34:11 48° 133° (SE) 692 3.8 -15.4°
Enters shadow 01:35:45 30° 77° (ENE) 959 4.3 -15.7°
